SL-16 DEB

Satellite information

Favourite Embed

Satellite Type and Status

DEBRISIN ORBIT

Key statistics

Satellite SL-16 DEB at a glance.

Uptime

11937

Days in orbit

Revolutions

≈ 14.2

Per day

Orbit

LEO

Low Earth Orbit

Inclination

71.0

Latest

Satellite identification and parameters

Extended collection of information and parameters for SL-16 DEB.

Object identification

Identified? True

Debris? True

Object name: SL-16 DEB

International designator: 1992-093LV

Object number (NORAD): 39867

Object ID (CCSDS): 39867

Country: COMMONWEALTH OF INDEPENDENT STATES (CIS)

Current information (Y/N): Y

RCS size: SMALL

Orbital parameters

Period: 101.433 minutes

Inclination: 70.9641 deg

SMA: 7204.664 km

Apoapsis: 927.483 km

Periapsis: 725.575 km

RAAN: 56.0872 deg

Eccentricy: 0.01401233

Argument of periapsis: 77.1338 deg

Mean anomaly: 284.5398 deg

Mean motion: 14.19652924 rev/day

Mean motion (dot): 0.00004161 rev/day2

B* drag term: 0.0018036896 1/REarth

Two-line elements (TLE)

Creation date: Aug. 24, 2025, 6:52 p.m.

Reference frame: TEME

Reference center: EARTH

Epoch: Aug. 24, 2025, 3:09 a.m. UTC

TLE line 0: 0 SL-16 DEB

TLE line 1: 1 39867U 92093LV 25236.13166318 .00004161 00000-0 18037-2 0 9996

TLE line 2: 2 39867 70.9641 56.0872 0140123 77.1338 284.5398 14.19652924554972

Live tracking on map

Real-time ground track for satellite SL-16 DEB.

In-orbit conjunctions

A list of the most updated potential collisions computed for object SL-16 DEB.

Target Orbit TCA Probability of collision Miss distance Type
COSMOS 1275 DEB LEO 2025-08-29 14:18:23 0.0001167923 294.0 (m) DEBRIS
COSMOS 2251 DEB LEO 2025-07-07 05:28:45 0.0001536543 42.0 (m) DEBRIS
IRIDIUM 38 LEO 2025-03-23 23:42:02 0.0001846849 261.0 (m) PAYLOAD

Associated space launch

Second generation ELING satellite

SL-16 DEB was lifted into orbit during the mission ‘Zenit-2 | Tselina-2 12’, on board a Zenit-2 space rocket.

The launch took place on Dec. 25, 1992, 5:56 a.m. from 45/1.

For more information about the launch, click the button.

Launch to space Zenit-2 | Tselina-2 12
Zenit-2 | Tselina-2 12

Agency: N/A

Status: Launch Successful

Launch date: Dec. 25, 1992, 5:56 a.m. UTC

Rocket: Zenit-2

Launch pad: 45/1

Location: Baikonur Cosmodrome, Republic of Kazakhstan

...

Latest news about this satellite

There are no fresh news available about this satellite. Check back as we update our databases every day.


Newsletter sign-up

Weekly statistics, charts and insights to help you stay on top of the space industry.